GEFSSGP_con_probscp_330.txt.gz
Probability
5 9 16 22 19 8 1 0 0 0 0 0 0 0 0 0 0 0 1 2 2 1 0 2 5 6 4 1 1 1 1 0 0 0 0 0 1 0 0 0 0 0 0 0 1 1 0 0 0
5 11 20 22 15 5 0 0 0 0 0 0 0 0 0 0 0 0 0 1 1 0 1 3 6 7 5 2 0 0 0 0 0 0 0 1 1 0 0 1 1 1 0 0 1 1 0 0 0
8 16 22 18 8 2 0 0 0 0 0 0 0 0 0 0 0 0 0 0 0 1 2 4 6 6 4 2 1 0 0 0 0 0 0 1 1 1 1 1 2 1 0 0 1 1 0 0 0
16 21 19 10 2 0 0 0 0 0 0 0 0 0 0 0 0 0 0 0 0 1 3 5 5 5 4 3 2 1 0 0 0 0 0 1 1 1 1 2 2 1 0 0 0 0 0 0 0
20 18 11 4 0 0 0 0 0 0 0 0 0 0 0 0 0 0 0 0 0 1 3 4 4 4 4 3 3 2 1 0 0 0 0 0 1 2 2 3 2 1 1 1 1 0 0 0 0
14 10 4 0 0 0 0 0 0 0 0 0 0 0 0 0 0 1 1 0 0 1 3 4 4 5 5 4 4 3 2 1 1 1 1 1 1 2 3 3 1 1 1 2 2 1 0 0 0
6 4 1 0 0 0 0 0 0 0 0 0 0 0 0 0 1 2 2 1 0 1 4 5 5 5 5 5 4 3 2 1 2 2 2 2 2 3 4 3 1 0 1 2 3 2 2 1 1
1 1 0 0 0 0 0 0 0 0 0 0 0 0 0 0 1 2 3 2 1 2 4 5 4 4 5 4 4 3 3 2 3 4 4 4 4 4 5 5 3 2 2 4 5 5 5 4 3
0 0 0 0 0 0 0 0 0 0 0 0 0 0 0 0 0 1 2 1 0 1 3 3 4 5 5 4 4 4 4 3 3 5 6 6 5 3 4 5 5 5 5 7 8 9 8 8 7
0 0 0 0 0 0 0 0 0 0 0 0 0 0 0 0 0 1 2 1 1 1 1 2 4 5 5 5 5 5 4 4 3 5 6 7 5 3 2 4 6 8 8 9 10 11 9 8 8
0 0 0 0 0 0 0 0 0 0 0 0 0 0 0 0 0 1 3 3 3 2 2 2 4 4 4 5 6 5 4 3 3 4 4 5 6 6 5 5 7 10 9 8 8 8 6 5 5
0 0 0 0 0 0 0 0 0 0 0 0 0 0 0 1 1 2 4 5 4 3 3 3 4 5 4 5 5 4 2 2 3 4 4 4 7 8 7 7 8 9 8 7 6 5 4 4 4
0 0 0 0 0 0 0 0 0 0 0 0 0 0 1 2 3 3 4 5 3 2 2 3 5 5 4 5 6 4 2 3 4 6 6 7 7 8 8 8 9 8 7 7 7 6 5 6 6
0 0 0 0 0 0 0 0 0 0 0 0 0 1 2 3 3 3 4 3 2 1 1 2 4 5 5 6 7 5 3 4 6 8 9 9 8 9 9 8 7 7 7 8 8 6 5 6 7
0 0 0 0 0 0 0 0 0 0 0 0 2 3 3 3 3 2 3 4 3 2 3 3 3 4 6 7 7 5 3 3 6 9 10 9 9 10 10 8 7 7 8 7 7 5 4 4 4
0 0 0 0 0 0 0 0 0 0 0 1 4 5 4 3 2 1 2 5 6 5 6 6 5 4 5 6 7 5 4 4 7 10 10 8 8 9 9 8 7 8 8 7 5 5 5 4 2
0 0 0 0 0 1 1 0 0 0 0 2 5 6 6 5 2 0 1 5 8 8 9 9 8 7 6 6 7 7 6 6 8 10 10 7 6 6 8 9 8 7 7 6 6 7 8 7 5
0 0 0 0 1 2 2 1 1 1 0 2 5 7 8 7 3 0 0 3 8 10 11 11 12 12 9 8 7 7 6 6 8 10 10 8 5 5 6 8 8 7 6 7 7 10 11 9 7
0 0 0 1 2 2 2 1 2 2 1 3 7 10 11 9 6 3 3 5 8 11 12 12 13 14 13 11 9 8 6 5 5 8 9 8 6 5 6 7 8 8 9 8 7 8 9 8 7
0 0 0 1 1 1 1 1 2 1 1 3 8 13 13 12 10 8 8 9 10 13 13 12 13 14 14 13 11 9 7 6 5 7 9 8 7 7 7 8 7 8 9 8 6 6 6 7 8
0 0 0 0 0 0 0 1 1 2 1 3 9 12 12 12 13 13 12 12 13 14 14 13 14 15 14 13 11 9 8 7 6 7 9 9 8 9 9 7 6 6 6 7 6 5 7 8 9
0 0 0 0 0 0 0 1 1 2 2 3 7 10 10 10 12 14 15 14 14 13 14 16 18 19 17 15 12 9 8 8 7 7 9 10 10 10 10 9 8 7 6 7 7 7 8 10 9
0 0 0 0 0 0 0 0 1 2 2 2 5 8 8 7 8 13 16 16 13 11 14 18 24 26 23 19 15 11 9 8 7 7 8 10 11 11 11 11 11 11 11 11 10 10 12 12 11
0 0 0 0 0 0 0 0 0 1 1 2 4 7 8 6 7 12 17 16 12 10 13 20 27 30 26 22 19 15 12 9 7 7 8 9 11 12 12 12 13 14 16 17 16 16 15 14 13
0 0 0 0 0 0 0 0 0 0 0 2 5 8 7 6 8 13 16 16 14 14 17 23 29 31 27 24 23 21 17 12 9 9 9 10 11 12 13 14 16 17 17 18 19 19 18 16 14
0 0 0 0 0 0 0 0 0 0 1 3 6 7 6 6 9 12 13 14 16 20 24 28 32 34 32 28 27 26 22 16 14 14 12 10 10 11 13 16 19 18 14 14 17 18 20 20 19
0 0 0 0 0 0 0 0 0 0 1 3 5 5 4 4 7 10 10 11 16 20 23 27 34 38 37 33 29 26 22 20 18 17 14 12 11 12 13 16 19 17 13 13 14 16 20 22 23
0 0 0 0 0 0 0 1 0 0 1 2 4 5 3 2 4 7 8 11 15 18 21 25 32 38 38 33 27 23 21 21 21 19 16 13 13 14 14 15 17 16 13 13 15 16 17 21 22
0 0 0 0 0 0 0 1 1 2 1 2 3 5 4 2 2 4 7 11 16 19 21 25 30 34 35 32 28 24 23 23 23 22 20 17 16 16 16 16 16 15 12 12 14 16 16 18 20
0 0 0 0 0 0 0 1 3 4 2 1 2 5 5 3 1 3 6 11 18 21 23 25 29 30 31 31 32 28 25 25 25 24 23 19 18 17 17 18 17 15 12 11 12 15 16 17 18

GEFSSGP_con_probscp_336.txt.gz
Probability
5 4 3 4 5 2 0 0 0 0 0 0 0 0 0 0 0 0 0 0 0 0 0 1 3 4 4 3 1 1 2 2 2 2 4 6 6 5 4 2 1 0 1 1 1 1 0 0 1
3 2 3 5 5 2 0 0 0 0 0 0 0 0 0 0 0 0 0 0 0 0 0 1 4 5 4 2 0 0 1 1 1 1 3 7 7 4 3 2 1 1 1 1 1 1 1 0 1
1 1 3 4 4 2 0 0 0 0 0 0 0 0 0 0 0 0 0 0 0 0 0 2 5 6 4 2 1 1 1 1 1 1 3 6 6 3 1 1 2 1 1 2 2 2 1 0 1
1 2 3 3 2 1 0 0 0 0 0 0 0 0 0 0 0 0 0 0 0 0 0 2 5 6 5 4 4 3 2 2 1 1 2 3 4 2 0 1 2 3 2 3 3 1 0 0 0
1 1 2 2 1 0 0 0 0 0 0 0 0 0 0 0 0 0 0 0 0 0 0 1 4 6 6 5 5 5 4 3 1 1 1 3 4 3 2 2 3 3 3 4 4 2 0 0 0
1 1 0 0 0 0 0 0 0 0 0 0 0 0 0 0 0 0 0 0 0 0 0 1 3 7 8 6 5 4 4 3 2 2 2 3 4 4 2 2 2 3 4 4 4 3 1 0 0
2 1 0 0 0 0 0 0 0 0 0 0 0 0 0 0 0 1 1 1 0 0 0 0 2 5 7 6 4 3 3 2 1 2 1 2 3 3 2 3 4 4 5 5 5 4 2 0 0
2 1 0 0 0 0 0 0 0 0 0 0 0 0 0 0 0 1 2 2 1 0 1 1 1 2 3 4 4 3 3 3 2 1 1 1 2 1 2 4 6 7 7 7 7 6 4 1 1
1 0 0 0 0 0 0 0 0 0 0 0 0 1 2 2 1 2 3 3 2 2 3 3 2 2 2 2 2 2 3 4 3 1 1 1 2 2 2 3 6 8 9 9 8 8 7 4 2
0 0 0 0 0 0 0 0 0 0 0 0 1 2 4 3 2 3 3 3 3 4 4 4 2 2 2 1 1 1 2 2 2 1 0 1 3 4 2 1 3 6 7 7 7 7 7 5 3
0 0 0 0 0 0 0 0 0 0 0 0 1 3 4 4 3 3 3 3 3 3 3 2 1 1 1 1 0 0 0 1 1 1 0 1 2 2 1 0 1 2 3 3 4 5 5 4 2
0 0 0 0 0 0 0 0 0 0 1 1 1 3 4 3 3 3 3 2 2 2 2 1 0 0 0 0 0 0 0 0 0 0 0 0 1 1 0 0 0 0 0 1 3 3 4 3 3
0 0 0 0 0 0 0 0 0 2 4 4 3 3 3 3 3 2 1 1 1 2 2 1 1 0 0 0 0 0 0 0 0 0 0 0 0 0 0 0 0 0 0 1 2 2 3 3 3
0 0 0 0 0 0 0 0 2 4 7 6 4 3 3 2 1 1 0 0 1 2 3 3 2 1 0 0 0 0 0 0 0 0 0 0 0 0 0 0 0 0 0 1 1 1 1 2 2
0 0 0 0 0 0 0 1 4 6 8 8 6 4 3 1 1 0 1 1 2 3 4 4 3 1 0 0 0 0 0 0 0 0 0 0 0 0 0 0 0 0 0 0 0 0 0 1 1
0 0 0 0 0 0 0 2 5 7 8 9 7 4 2 1 1 2 2 2 3 5 5 4 3 1 0 0 0 0 0 0 1 1 1 0 0 0 0 0 0 0 0 0 0 0 0 0 0
0 0 0 0 0 0 0 2 5 6 7 8 7 4 2 1 2 4 5 4 5 5 5 3 2 1 0 0 0 0 0 1 2 2 1 0 0 1 1 1 1 0 0 0 0 0 0 0 0
0 0 0 0 0 0 0 1 4 5 5 6 6 4 2 2 3 5 7 6 5 4 3 3 2 2 1 1 0 0 1 2 2 1 1 1 1 2 2 2 1 0 0 0 0 0 0 0 0
0 0 0 0 0 0 0 1 2 4 4 5 5 5 3 3 4 6 8 8 5 4 4 3 3 3 3 3 2 1 1 3 2 1 2 2 2 2 2 1 1 0 0 0 0 0 0 0 0
0 0 0 0 0 0 0 0 2 4 4 5 5 5 4 4 5 7 9 9 7 5 5 4 3 3 4 5 4 3 2 2 2 1 2 3 3 1 1 0 0 0 0 0 0 0 0 1 1
0 0 0 0 0 0 0 1 2 4 4 5 5 4 3 5 7 8 10 11 10 7 6 5 4 4 5 6 6 4 2 1 1 0 1 2 2 1 0 0 0 0 0 0 0 0 0 1 1
0 0 0 0 0 0 1 2 2 2 3 5 4 3 3 6 8 9 10 12 11 8 6 6 6 6 6 7 6 4 2 0 0 0 1 1 1 0 0 0 0 0 0 0 0 0 0 0 1
0 0 0 0 0 0 1 2 1 0 1 3 3 2 3 7 11 11 11 11 11 10 9 8 7 7 8 8 6 4 2 1 1 0 0 0 0 0 0 0 0 0 0 0 0 0 1 1 0
0 0 0 0 0 0 1 1 0 0 0 1 2 2 5 10 14 13 12 11 11 11 12 12 10 9 9 9 6 4 3 3 2 1 1 0 1 2 1 1 0 0 0 0 0 0 2 2 2
0 0 0 0 0 0 0 0 0 0 0 1 2 3 7 12 13 12 12 11 11 12 15 16 13 11 10 9 7 5 4 4 3 3 2 2 2 3 3 3 2 2 1 1 0 0 2 3 4
0 0 0 0 0 0 0 0 0 0 0 0 1 3 7 10 10 9 11 12 12 12 16 18 16 13 11 9 8 6 5 4 3 3 3 3 4 5 6 6 5 5 4 3 1 1 2 4 5
0 0 0 0 0 0 0 0 0 0 0 0 0 2 5 7 6 6 9 13 13 13 16 19 17 14 12 11 8 7 5 4 4 4 4 5 6 7 8 8 7 6 6 5 4 3 4 5 6
0 0 0 0 0 0 0 0 0 0 0 0 0 2 3 5 4 4 5 9 11 12 15 20 19 16 14 12 10 7 6 5 6 6 6 7 7 8 9 9 8 6 6 6 6 5 6 6 6
0 0 0 0 0 0 0 0 0 0 0 0 1 2 4 5 6 5 4 6 9 12 17 21 20 16 14 14 12 10 10 9 9 8 7 8 9 9 10 10 8 6 6 6 7 7 7 7 7
0 0 0 0 0 0 0 0 0 0 0 1 2 3 5 8 9 7 4 5 8 13 19 22 20 15 14 14 14 13 13 13 11 9 8 8 9 10 12 11 8 6 6 6 7 8 8 8 9

GEFSSGP_con_probscp_342.txt.gz
Probability
7 5 2 1 0 0 0 0 0 0 0 0 0 0 0 0 0 0 0 0 0 0 0 1 1 1 0 1 1 1 2 3 1 1 2 5 5 3 1 0 0 0 0 1 3 3 1 0 1
4 4 3 2 1 0 0 0 0 0 0 0 0 0 0 0 0 0 0 0 0 0 0 0 0 0 0 1 1 2 3 3 2 2 3 4 4 3 2 1 0 0 0 1 3 3 1 1 2
1 2 2 2 1 0 0 0 0 0 0 0 0 0 0 0 0 0 0 0 1 1 0 1 1 1 1 2 2 3 3 3 3 3 4 4 4 3 2 1 0 0 0 1 2 2 1 1 2
0 1 1 1 0 0 0 0 0 0 0 0 0 0 0 0 0 0 0 1 2 2 1 2 3 2 3 4 3 3 3 3 3 4 5 5 5 5 3 2 2 1 1 0 1 1 1 1 1
0 0 0 0 0 0 0 0 0 0 0 0 0 0 0 0 0 0 0 1 2 2 1 3 3 3 4 4 4 3 4 3 3 4 5 6 6 5 5 4 4 4 4 2 1 1 1 1 0
0 0 0 0 0 0 0 0 0 0 0 0 0 0 0 0 0 0 0 0 1 1 1 2 3 3 4 4 4 4 5 4 3 3 4 6 7 6 4 4 5 7 7 5 2 1 2 2 1
0 0 0 0 0 0 0 0 0 0 0 0 0 0 0 0 0 0 0 0 0 0 0 1 2 3 4 4 4 5 5 3 2 1 2 4 6 5 4 3 6 8 9 7 4 2 1 1 2
0 0 0 0 0 0 0 0 0 0 0 0 0 0 0 0 0 0 0 1 1 0 0 1 3 4 4 3 3 4 4 3 2 0 1 2 3 3 2 2 5 6 7 7 5 3 1 1 2
0 0 0 0 0 0 0 0 0 0 0 0 0 1 1 1 1 2 2 2 2 1 1 2 4 4 4 3 3 3 3 2 1 0 0 1 1 1 1 1 3 4 4 4 3 2 1 1 1
0 0 0 0 0 0 0 0 0 0 0 0 1 2 2 3 4 4 4 3 2 2 2 2 3 3 3 3 3 3 2 1 0 0 0 0 0 0 0 1 2 3 3 3 2 1 0 1 2
0 0 0 0 0 0 0 0 0 0 0 0 1 3 3 4 5 4 3 2 1 1 1 1 1 1 2 3 2 1 1 0 0 0 0 0 0 0 1 2 3 3 3 3 2 1 0 1 2
0 0 0 0 0 0 0 0 0 1 1 1 3 4 4 3 3 3 2 1 0 0 0 0 0 0 1 2 1 0 0 0 0 0 0 0 0 0 1 2 2 3 3 3 3 2 2 2 3
0 0 0 0 0 0 0 1 1 2 2 3 4 4 3 1 1 1 1 1 0 0 1 2 1 0 0 0 0 0 0 0 0 0 0 0 0 0 0 1 1 1 2 2 2 2 2 3 3
0 0 0 0 0 0 1 2 3 3 3 3 3 3 1 0 0 0 0 0 0 1 2 3 2 0 0 0 0 0 0 0 0 0 0 0 0 0 0 0 0 0 1 1 1 1 1 2 2
0 0 0 0 0 0 2 3 4 4 3 3 3 2 1 0 0 0 0 0 0 1 2 2 1 0 0 0 0 0 0 0 0 0 0 0 0 0 0 0 0 0 0 0 0 0 0 1 1
0 0 0 0 0 0 1 3 4 3 3 3 3 2 1 1 1 1 0 1 1 1 1 1 0 0 0 0 0 0 0 0 0 0 0 0 0 0 0 0 0 0 0 0 0 0 0 0 0
0 0 0 0 0 0 1 2 3 3 3 3 3 2 1 2 2 2 1 1 2 1 0 0 0 0 0 0 0 0 0 0 0 0 0 0 0 0 0 0 0 0 0 0 0 0 0 0 0
0 0 0 0 0 0 0 1 1 2 2 2 1 1 1 2 3 2 1 1 2 2 1 0 0 0 0 0 0 0 0 0 0 0 0 0 0 0 0 0 0 0 0 0 0 0 0 0 0
0 0 0 0 0 0 0 0 0 1 1 1 0 1 1 3 3 2 1 1 2 3 2 1 1 0 0 0 0 0 0 0 0 0 0 0 0 0 1 1 1 0 0 0 0 0 0 0 0
0 0 0 0 0 0 0 0 0 1 1 0 0 1 3 4 3 2 1 1 1 3 3 3 2 1 1 1 0 0 1 0 0 0 0 0 0 1 2 2 1 0 0 0 0 0 0 0 0
0 0 0 0 0 0 0 0 0 1 1 0 0 1 3 4 4 2 1 1 1 3 3 3 3 3 2 2 1 1 1 0 0 0 0 0 0 1 1 1 0 0 0 0 0 0 0 0 0
0 0 0 0 0 0 0 0 0 0 0 0 0 0 1 3 3 3 3 2 3 4 3 3 3 3 3 3 3 2 2 1 0 0 0 0 0 0 0 0 0 0 0 0 0 0 0 0 1
0 0 0 0 0 0 0 0 0 0 0 0 0 0 0 1 1 2 3 4 5 5 4 3 3 3 4 3 3 3 3 1 1 0 0 0 0 0 0 0 0 0 0 0 0 0 0 1 2
0 0 0 0 0 0 0 0 0 0 0 0 0 0 0 0 0 1 3 5 5 5 5 5 5 5 5 5 4 3 3 3 2 1 0 0 0 0 0 0 0 0 0 0 0 0 0 1 2
0 0 0 0 0 0 0 0 0 0 0 0 0 0 0 0 0 1 3 6 6 5 6 7 8 7 7 7 6 4 3 3 3 2 1 1 0 0 0 0 0 0 0 0 0 0 0 1 2
0 0 0 0 0 0 0 0 0 0 0 0 0 0 0 0 0 0 1 5 7 6 6 8 9 8 8 9 8 6 4 3 3 3 3 2 1 1 1 1 1 2 1 1 1 1 0 1 2
0 0 0 0 0 0 0 0 0 0 0 0 0 0 0 0 0 0 0 3 5 5 5 6 7 8 8 9 9 7 5 4 3 3 3 3 3 2 2 3 4 5 4 4 4 3 1 1 1
0 0 0 0 0 0 0 0 0 0 0 0 0 0 0 0 0 0 0 2 3 4 4 4 5 6 7 9 9 7 6 4 3 3 3 3 3 3 3 3 4 6 6 6 5 4 3 2 2
0 0 0 0 0 0 0 0 0 0 0 1 1 0 0 0 0 0 0 1 2 3 4 5 5 5 6 8 8 7 6 5 4 3 3 3 3 3 3 3 4 5 6 6 6 4 3 3 3
0 0 0 0 0 0 0 0 0 0 1 2 2 1 0 0 0 0 0 0 1 3 5 7 6 5 5 8 8 7 6 6 5 4 3 3 3 3 3 3 4 5 6 6 6 5 4 3 3

GEFSSGP_con_probscp_348.txt.gz
Probability
7 6 6 6 5 2 0 0 0 0 0 0 0 0 0 0 0 0 0 0 0 0 0 0 1 1 1 2 2 1 0 0 0 1 3 3 2 1 1 0 0 0 0 1 2 4 3 1 0
5 5 6 5 3 1 0 0 0 0 0 0 0 0 0 0 0 0 0 0 0 0 0 1 2 2 1 1 1 1 1 1 1 2 3 3 3 3 2 1 0 0 0 1 3 3 2 0 0
5 5 4 3 1 0 0 0 0 0 0 0 0 0 0 0 0 0 0 0 0 0 0 1 2 2 1 0 0 1 2 2 2 3 4 5 5 5 4 1 0 0 0 1 2 2 1 0 0
7 6 3 1 0 0 0 0 0 0 0 0 0 0 0 0 0 0 0 0 0 0 0 1 2 1 0 0 0 1 3 4 4 5 7 7 7 7 6 4 2 2 2 1 2 2 1 0 0
6 4 1 0 0 0 0 0 0 0 0 0 0 0 0 0 0 0 0 0 0 0 0 1 3 2 0 0 0 1 3 4 4 7 9 8 7 8 8 7 5 4 3 3 3 2 1 0 0
2 1 0 0 0 0 0 0 0 0 0 0 0 0 0 0 0 0 0 0 0 0 0 1 2 2 1 0 0 0 1 2 4 7 8 6 5 6 6 5 5 5 5 4 3 1 0 0 0
0 0 0 0 0 0 0 0 0 0 0 0 0 0 0 0 0 0 0 0 0 0 0 0 1 1 1 0 0 0 0 1 3 6 7 6 3 3 2 2 2 4 6 5 3 1 1 1 0
0 0 0 0 0 0 0 0 0 0 0 0 0 0 1 1 1 1 1 1 0 0 0 0 1 1 1 0 0 0 0 1 2 5 6 5 3 1 1 0 1 3 5 5 4 3 2 2 1
0 0 0 0 0 0 0 0 0 0 0 0 0 1 2 2 2 2 2 1 0 0 0 0 1 2 1 0 0 0 0 1 1 2 3 4 3 2 1 1 2 3 2 3 4 4 3 3 2
0 0 0 0 0 0 0 0 0 0 0 0 0 1 2 3 3 1 1 0 0 0 0 1 2 2 1 1 1 1 1 1 1 0 1 2 3 3 2 1 3 2 1 1 2 3 2 2 2
0 0 0 0 0 0 0 0 0 0 0 0 0 1 2 3 2 1 0 0 0 0 0 1 2 3 2 3 2 1 1 2 1 0 0 1 3 3 2 2 2 2 1 1 1 2 1 1 1
0 0 0 0 0 0 0 0 0 0 1 1 2 2 2 2 2 2 1 0 0 0 0 0 1 1 2 2 2 1 1 1 1 1 1 1 1 1 1 1 1 1 1 1 2 2 1 1 2
0 0 0 0 0 0 0 1 1 1 2 4 4 3 1 1 2 2 2 1 0 0 0 0 0 0 1 1 1 1 2 2 2 2 2 1 0 0 0 0 0 0 0 1 2 2 1 2 4
0 0 0 0 0 0 1 2 2 3 4 5 5 3 1 0 1 1 1 1 0 0 0 0 0 0 0 0 1 2 3 3 2 2 2 1 0 0 1 1 1 1 1 1 1 1 1 3 4
0 0 0 0 0 0 1 2 3 4 5 6 6 4 2 0 0 0 1 0 0 0 0 0 0 0 0 0 1 3 3 3 2 1 1 0 0 0 0 1 2 2 2 1 0 0 1 2 3
0 0 0 0 0 0 0 1 3 4 5 6 6 4 1 0 1 1 1 0 0 0 0 0 0 0 0 1 2 3 3 3 2 1 0 0 0 0 0 1 2 3 3 1 0 0 1 2 3
0 0 0 0 0 0 0 1 2 3 4 5 6 4 1 1 2 2 1 0 0 1 1 0 0 0 0 1 3 3 3 3 2 1 0 0 0 0 0 0 1 2 2 1 0 0 0 1 2
0 0 0 0 0 0 0 1 2 3 3 4 5 4 1 1 2 3 2 1 2 3 3 2 1 1 1 2 3 3 3 3 2 1 0 0 0 0 0 0 0 2 2 1 0 0 0 0 1
0 0 0 0 0 0 0 1 2 3 3 3 5 4 1 1 3 3 3 4 6 6 6 5 4 4 3 3 4 4 3 3 2 1 0 0 0 0 0 0 0 2 3 1 0 0 0 0 0
0 0 0 0 0 0 0 0 2 3 2 2 3 2 1 2 4 5 5 6 8 8 7 7 6 6 5 5 5 5 4 3 3 1 0 0 0 0 0 0 0 2 3 2 1 1 1 1 1
0 0 0 0 0 0 0 0 2 2 1 1 1 1 1 2 5 7 7 8 9 9 8 7 7 7 8 8 7 6 5 4 3 2 1 1 1 1 0 0 0 0 1 2 2 2 2 2 3
0 0 0 0 0 0 0 0 1 2 2 1 1 1 1 1 4 7 8 8 8 8 8 7 8 9 11 11 11 9 8 6 5 4 3 3 2 1 0 0 0 0 0 1 1 2 3 4 4
0 0 0 0 0 0 0 0 1 2 2 2 1 2 1 1 2 4 6 8 8 7 7 7 9 12 15 15 15 14 13 11 10 9 7 5 3 1 0 0 0 0 0 1 1 3 4 6 6
0 0 0 0 0 0 0 0 0 1 1 1 1 1 1 0 1 3 5 8 9 9 8 9 12 14 17 18 19 19 18 16 14 13 11 8 5 4 2 1 1 1 1 2 4 5 5 7 8
0 0 0 0 0 0 0 0 0 0 0 0 0 0 0 1 2 4 7 9 11 11 11 12 15 18 19 20 22 24 22 19 17 15 14 11 9 8 6 4 3 3 3 3 5 5 6 6 8
0 0 0 0 0 0 0 0 0 0 0 0 0 0 0 1 2 5 7 9 9 10 10 12 17 21 21 21 23 25 24 20 18 16 15 13 11 10 9 7 6 5 4 4 4 5 6 7 7
0 0 0 0 0 0 0 0 0 0 0 0 0 0 0 1 2 4 5 5 5 6 9 12 16 20 22 22 21 22 21 19 18 17 16 14 12 11 11 10 9 7 6 6 5 5 8 10 9
0 0 0 0 0 0 0 0 0 0 0 0 0 0 1 1 1 3 4 2 1 3 7 11 14 17 20 21 19 18 18 18 18 17 15 14 15 16 16 15 13 11 11 10 8 7 9 11 11
0 0 0 0 0 0 0 0 0 1 1 2 1 2 2 1 2 5 6 3 1 2 4 9 12 14 16 18 18 17 17 18 18 16 15 15 18 20 21 21 18 15 14 14 13 10 11 13 14
0 0 0 0 0 0 0 0 1 2 3 4 3 3 3 2 3 7 9 5 2 1 3 6 9 13 15 16 17 18 17 17 18 17 15 15 18 21 22 23 19 15 15 16 16 14 14 15 16

GEFSSGP_con_probscp_354.txt.gz
Probability
2 6 16 23 19 7 1 0 0 0 0 0 0 0 0 0 0 0 0 0 0 0 1 3 4 4 3 3 2 1 1 1 2 2 2 1 0 0 0 0 1 1 3 5 6 5 4 4 6
4 10 21 24 14 4 0 0 0 0 0 0 0 0 0 0 0 0 0 0 0 0 1 3 4 4 3 3 2 1 0 1 2 3 4 4 2 1 1 1 1 2 3 4 5 4 3 2 3
11 17 24 21 8 1 0 0 0 0 0 0 0 0 0 0 0 0 0 0 0 0 1 3 5 4 3 3 3 1 1 1 2 4 6 7 4 2 2 1 1 1 3 4 4 4 3 2 2
16 20 21 13 4 0 0 0 0 0 0 0 0 0 0 0 0 0 0 0 0 1 4 6 7 6 4 3 3 2 1 1 3 5 7 8 5 2 1 1 0 1 3 4 4 4 4 4 3
17 18 15 7 2 0 0 0 0 0 0 0 0 0 0 0 0 0 0 0 0 2 4 6 9 8 6 5 4 2 1 1 3 4 6 7 5 1 1 1 1 1 2 4 5 5 5 5 4
16 15 10 4 1 0 0 0 0 0 0 0 1 1 1 1 1 1 0 0 1 2 3 5 7 9 9 7 4 2 1 1 2 3 5 6 3 1 1 2 2 2 3 3 4 4 4 3 2
16 11 6 3 1 0 0 0 0 0 0 0 1 2 1 2 2 1 1 1 2 2 3 4 6 9 10 9 5 2 1 2 2 4 6 5 2 1 2 2 3 4 4 3 2 3 2 1 0
11 7 3 1 0 0 0 0 0 0 0 0 1 1 2 3 3 3 2 2 1 1 2 4 7 9 10 8 4 3 3 4 5 7 8 5 3 2 3 4 4 4 4 3 3 3 3 2 1
4 4 2 0 0 0 0 0 0 1 1 1 1 2 3 3 3 2 2 1 0 0 0 2 6 9 8 4 2 3 5 6 7 10 11 7 3 2 3 4 5 4 4 4 4 5 5 4 2
2 2 1 0 0 0 0 0 0 1 2 3 4 4 4 4 2 1 1 0 0 0 1 2 5 8 7 4 2 3 5 7 7 9 11 8 3 1 2 2 3 3 3 4 6 7 6 3 2
1 2 1 0 0 0 0 0 0 1 3 5 6 6 5 4 2 1 1 1 1 0 1 3 7 8 8 7 5 4 6 7 6 6 8 7 4 2 2 3 4 3 3 3 6 7 5 2 1
0 1 1 0 0 0 0 0 0 1 2 4 5 5 5 3 2 2 2 2 2 2 3 5 8 11 11 9 7 5 5 6 5 5 6 6 5 3 2 4 5 4 2 2 4 4 2 1 1
0 0 1 0 0 0 0 0 1 1 2 3 4 4 4 3 2 3 4 3 3 2 3 6 9 12 12 11 9 5 4 6 7 6 5 5 5 3 3 4 5 4 3 2 2 2 1 1 2
0 0 0 0 0 0 0 0 1 2 3 4 4 5 5 4 3 3 4 4 3 3 3 6 9 11 12 11 9 5 4 6 8 6 4 3 4 4 4 5 5 5 4 3 2 2 2 2 2
0 0 0 0 0 0 1 1 2 2 4 6 6 6 6 5 3 2 3 3 3 4 6 6 8 11 13 12 8 5 4 5 7 7 6 4 4 4 4 5 5 5 5 4 3 3 3 3 2
0 0 0 0 0 0 1 2 3 2 4 7 8 8 7 6 3 2 2 3 5 8 10 9 8 11 13 12 9 5 4 4 7 9 9 7 5 5 5 5 5 5 5 4 4 3 3 3 2
0 0 0 0 0 0 1 2 4 3 4 7 9 9 10 8 6 4 3 5 8 12 14 12 11 12 13 12 9 7 5 5 6 9 10 9 8 7 7 6 6 6 5 4 4 3 3 4 4
0 0 0 0 0 0 0 1 3 3 4 7 9 11 12 13 11 8 6 7 10 14 17 17 15 16 16 14 11 8 7 6 6 8 9 10 8 8 8 8 8 8 7 5 4 4 4 5 5
0 0 0 0 0 0 0 0 1 3 4 6 9 12 15 17 17 13 9 8 11 16 22 23 20 20 20 19 15 11 9 8 7 8 11 11 10 8 8 8 9 9 7 6 6 7 7 6 6
0 0 0 0 0 0 0 0 1 2 4 6 9 13 16 20 21 18 14 12 13 20 27 28 25 23 22 21 18 14 12 11 9 10 14 15 12 9 7 7 8 8 7 7 9 11 11 8 8
0 0 0 1 1 0 0 0 1 2 4 5 8 12 16 20 24 25 22 19 20 24 29 30 31 30 27 23 19 16 15 14 12 13 17 18 16 11 8 7 7 7 8 9 11 14 14 11 9
0 0 0 1 1 0 0 0 1 3 4 5 6 9 13 18 25 28 29 27 25 26 30 37 41 40 35 28 22 19 18 17 17 17 19 21 20 16 12 9 9 9 9 10 12 14 14 12 9
0 0 0 0 0 0 0 0 2 4 5 5 5 6 9 15 24 30 33 33 29 26 31 42 50 48 41 34 28 24 21 21 20 20 20 22 22 20 17 15 15 14 12 12 14 15 15 14 12
0 0 0 0 0 0 0 0 2 5 7 7 6 6 8 13 22 29 34 35 30 27 31 42 52 53 46 38 33 28 26 25 22 21 20 20 19 19 19 21 22 20 17 19 20 19 17 16 15
0 0 0 0 0 0 0 1 2 5 7 8 7 7 8 12 19 25 30 32 29 28 32 42 53 54 47 41 36 33 31 28 25 23 21 18 16 17 20 24 25 24 23 24 25 24 21 20 19
0 0 0 0 0 0 1 2 4 4 6 8 8 7 7 9 14 21 26 29 27 27 32 43 52 54 47 41 39 37 34 30 27 26 23 20 17 18 21 25 27 27 26 27 27 27 26 26 25
0 0 0 0 0 0 1 4 5 5 5 6 6 6 7 7 11 17 24 28 27 26 30 39 49 53 49 44 41 41 37 32 29 28 25 22 21 21 25 28 29 29 29 31 31 29 28 29 29
0 0 0 0 0 0 1 3 4 4 4 4 6 7 7 8 12 18 24 27 28 26 29 36 46 51 50 46 43 41 39 36 32 29 27 25 26 28 32 34 33 32 33 36 35 31 28 28 28
0 0 0 0 0 0 1 2 2 3 3 5 9 11 9 9 15 21 24 27 28 27 28 34 42 47 48 47 45 42 41 40 36 33 32 32 33 35 36 37 36 33 33 35 35 30 26 25 26
0 0 0 1 1 1 1 2 2 3 4 6 12 14 10 9 16 22 24 25 27 27 29 33 38 42 46 48 46 43 43 42 39 37 37 38 40 39 37 37 35 32 31 32 31 28 24 24 24

GEFSSGP_con_probscp_360.txt.gz
Probability
2 1 1 1 1 0 0 0 0 0 0 0 0 0 0 0 0 0 0 0 0 0 1 3 5 5 4 4 4 5 5 6 6 5 4 3 2 1 1 1 1 1 1 2 1 0 1 2 3
2 1 1 1 1 0 0 0 0 0 0 0 0 0 0 0 0 0 0 0 0 0 1 4 7 7 6 5 4 4 5 5 4 4 4 4 3 2 1 1 1 1 3 3 1 1 1 3 3
3 3 3 1 0 0 0 0 0 0 0 0 0 0 0 0 0 1 1 1 0 0 1 4 9 11 8 6 4 3 3 3 2 3 5 6 5 3 2 2 2 2 3 4 2 2 3 4 4
5 5 4 1 0 0 0 0 1 1 1 2 1 0 0 0 1 2 2 2 1 0 0 4 9 12 10 6 4 3 1 1 2 4 6 7 7 6 3 1 1 1 2 3 3 3 4 4 5
6 6 4 2 0 0 0 0 1 2 3 3 2 1 0 1 2 3 3 2 2 1 0 3 8 10 8 6 4 3 1 1 4 6 6 7 8 8 5 2 0 0 1 2 3 3 3 4 4
6 6 4 2 1 0 0 0 1 2 3 3 3 2 1 1 3 3 2 2 3 4 3 5 8 8 6 5 4 4 2 2 5 6 6 6 7 9 7 3 0 0 1 2 3 3 4 4 4
5 4 3 2 1 0 0 0 0 1 1 2 3 3 3 3 3 3 1 1 3 6 7 8 9 7 5 5 5 4 3 3 5 7 7 6 6 7 7 5 2 0 1 2 3 3 4 5 5
3 2 1 1 0 0 0 0 0 1 1 2 3 3 3 3 3 3 2 1 3 6 7 8 9 7 5 4 5 4 4 6 7 8 7 5 4 4 4 4 3 2 2 3 3 2 2 3 3
2 1 0 0 0 0 0 0 1 2 3 4 4 5 4 4 4 4 4 3 4 5 4 4 6 7 7 5 4 3 4 6 8 6 4 3 1 1 2 3 4 4 3 3 3 3 3 1 1
2 1 0 0 0 0 0 0 1 2 4 5 7 7 5 4 5 5 5 5 4 4 3 3 5 7 8 7 4 2 2 4 4 3 1 1 0 0 1 2 3 3 3 2 2 4 3 1 0
1 1 1 0 0 0 0 0 1 1 3 6 8 8 5 4 6 6 4 4 5 4 4 4 5 7 7 6 4 1 0 1 1 1 0 0 0 0 0 1 1 1 1 1 1 2 1 0 0
1 1 1 1 0 0 0 0 0 1 3 6 7 6 4 4 5 5 4 3 4 5 5 5 6 6 5 4 2 1 0 0 0 0 0 0 0 0 0 0 0 0 0 0 0 0 0 0 0
2 2 2 1 0 0 0 0 0 1 4 6 7 5 4 3 4 4 3 2 3 4 5 4 4 5 4 2 1 0 0 0 0 0 0 0 0 0 0 0 0 0 0 0 0 0 0 0 0
1 2 1 1 0 0 0 0 0 2 6 8 7 4 3 3 4 3 2 1 3 5 5 4 3 3 2 1 0 0 0 0 0 0 0 0 0 0 0 0 0 0 0 0 0 0 0 0 0
0 0 0 0 0 0 0 0 2 5 10 10 7 4 4 4 4 3 1 1 4 7 7 5 3 2 1 1 0 1 1 1 0 0 0 0 0 0 0 0 0 0 0 0 0 0 0 0 0
0 0 0 0 0 0 0 1 3 8 11 11 9 7 5 5 4 3 2 3 6 10 10 7 5 3 1 0 0 1 2 1 0 0 0 0 0 0 0 0 0 0 0 0 0 0 0 0 0
0 0 0 0 0 0 0 1 4 8 11 12 12 10 8 6 5 5 5 6 9 11 10 8 6 5 3 1 0 1 2 1 0 0 0 0 0 1 1 0 0 0 0 0 0 0 0 0 1
0 0 0 0 0 0 0 1 5 8 10 12 14 13 10 8 8 9 10 10 12 12 10 8 7 7 6 4 2 2 3 2 1 0 0 0 0 1 1 0 0 0 1 1 1 1 1 1 2
0 0 0 0 0 0 0 1 5 9 10 12 14 14 12 10 10 12 14 15 15 13 11 10 9 9 9 7 5 4 3 3 2 1 1 0 0 0 0 0 0 0 1 2 2 2 2 2 2
0 0 0 0 0 1 0 1 4 9 10 12 13 13 12 11 12 16 19 20 18 14 12 11 11 10 9 8 6 4 4 4 3 3 2 1 0 0 0 0 0 0 1 2 1 1 2 1 1
0 0 0 0 0 0 0 1 4 8 10 10 12 11 11 12 14 18 22 23 20 15 13 12 12 10 9 8 7 5 5 5 4 4 4 4 3 2 1 1 0 0 1 1 1 2 3 3 2
0 0 0 0 0 0 0 1 4 6 8 9 10 10 10 11 15 19 23 24 21 17 14 14 14 13 11 9 7 7 7 7 5 3 4 6 5 4 4 3 1 1 2 2 2 3 4 5 5
0 0 0 0 0 0 0 1 4 6 6 6 8 11 12 12 14 18 22 23 22 19 17 17 18 18 15 12 10 9 9 8 6 5 5 6 5 5 5 4 3 2 2 2 2 3 4 5 6
0 0 0 0 0 0 0 1 3 5 5 5 8 13 15 13 13 17 20 20 21 21 20 20 22 22 20 16 13 12 11 9 9 9 8 6 5 4 5 5 5 4 3 3 3 3 3 4 5
0 0 0 0 0 0 0 1 3 4 4 5 8 13 16 15 14 17 17 17 19 21 21 22 22 24 24 21 17 15 13 12 12 11 9 7 6 5 5 5 5 4 3 4 5 5 5 5 4
0 0 0 0 0 0 0 1 3 4 5 5 7 11 15 17 18 19 18 17 18 19 20 21 22 24 27 25 23 21 19 17 15 12 9 6 6 6 5 4 5 4 3 4 6 7 8 7 6
0 0 0 0 0 0 0 1 4 5 5 7 8 10 12 17 22 23 21 19 17 16 17 20 22 25 28 28 27 27 26 22 18 14 10 8 7 7 5 4 4 5 5 4 5 7 8 9 9
0 0 0 0 0 0 0 1 3 6 7 9 10 10 12 17 22 23 20 16 14 13 15 20 21 23 26 27 28 27 25 22 19 17 15 11 9 9 7 4 4 5 6 5 5 5 7 8 9
0 0 0 0 0 0 0 0 2 6 9 11 12 12 14 17 20 18 15 12 11 11 14 17 19 20 22 23 24 24 21 18 18 19 17 14 11 10 8 5 5 6 7 6 6 6 6 7 8
0 0 0 0 0 0 0 0 2 6 10 12 14 14 15 18 19 16 13 11 10 9 12 16 18 19 20 21 21 21 19 17 17 18 17 15 12 9 8 7 6 7 7 7 6 6 6 6 7

GEFSSGP_con_probscp_366.txt.gz
Probability
4 2 0 0 0 0 0 0 0 0 0 0 0 0 0 0 0 0 0 0 0 0 1 5 8 8 7 4 3 4 6 5 5 5 4 4 2 2 2 2 1 2 3 2 1 0 1 2 3
2 1 0 0 0 0 0 0 0 0 0 0 0 0 0 0 0 0 0 0 0 0 1 4 8 10 10 6 4 4 5 5 6 7 5 4 2 1 1 1 1 2 3 2 1 0 1 2 3
0 0 0 0 0 0 0 0 0 0 0 0 0 0 0 0 0 0 0 0 0 0 1 4 9 13 12 10 7 6 4 4 6 7 6 4 2 1 0 0 1 2 2 3 2 1 1 2 3
0 0 0 0 0 0 0 0 0 1 1 1 1 2 1 0 0 0 0 0 0 0 1 4 9 12 12 12 11 8 6 5 6 6 6 5 3 1 0 0 0 1 2 3 3 2 2 2 3
1 1 1 0 0 0 0 0 0 1 2 3 3 3 2 1 1 0 0 0 0 1 2 4 7 10 11 11 11 8 6 5 5 5 5 5 3 1 1 1 1 1 2 3 3 3 3 3 2
1 1 1 0 0 0 0 0 0 1 2 3 3 4 3 2 1 0 0 0 1 2 3 4 6 8 9 10 9 7 4 4 4 4 4 4 3 2 2 3 2 1 1 2 3 3 3 3 2
0 0 0 0 0 0 0 0 0 1 2 3 4 4 4 3 1 0 0 0 1 2 3 3 4 6 6 7 8 6 2 2 2 2 3 3 3 2 2 3 3 2 1 1 2 3 3 3 2
0 0 0 0 0 0 0 0 0 1 2 3 3 3 3 2 1 0 0 0 0 1 2 3 3 4 5 5 5 4 2 1 1 1 2 2 2 2 1 2 3 3 2 0 1 2 3 2 1
0 0 0 0 0 0 0 0 0 1 2 3 3 2 3 3 1 0 0 0 0 0 1 3 3 4 5 5 3 2 1 1 1 1 1 1 1 1 1 1 2 3 2 1 1 1 1 1 0
0 0 0 0 0 0 0 0 0 1 2 3 3 3 5 6 3 1 0 0 0 0 1 3 3 3 4 4 3 3 1 0 0 0 0 1 1 0 0 1 2 3 2 1 0 1 0 0 0
0 0 0 0 0 0 0 0 1 1 2 3 4 5 8 9 7 3 1 0 0 1 2 2 2 1 2 2 3 3 2 0 0 0 0 0 0 0 0 1 1 2 1 0 1 1 1 0 0
0 0 0 0 0 0 0 0 1 1 2 3 4 7 10 11 8 4 2 0 1 2 3 2 1 0 0 1 1 2 2 0 0 0 0 0 0 0 1 1 1 1 0 0 1 1 1 0 0
0 0 0 0 0 0 0 0 1 1 1 3 5 7 9 9 7 3 1 0 1 2 3 2 1 0 0 0 0 1 1 0 0 0 0 0 0 0 1 1 1 1 1 0 0 0 0 0 0
0 0 0 0 0 0 0 0 0 0 2 4 5 5 6 7 6 3 1 0 1 2 3 3 2 1 0 0 0 0 0 0 0 0 0 0 0 0 1 1 2 2 1 0 0 0 0 0 0
0 0 0 0 0 0 0 0 0 1 3 5 4 4 4 5 5 4 2 1 2 3 3 4 3 1 0 0 0 0 0 0 0 0 0 0 0 0 0 0 1 1 0 0 0 0 0 0 0
0 0 0 0 0 0 0 0 0 1 3 5 4 4 3 3 4 4 3 3 3 3 3 3 3 1 0 0 0 0 0 0 0 0 0 0 0 0 0 0 0 0 0 0 0 0 0 0 0
0 0 0 0 0 0 0 0 0 1 3 4 5 5 3 2 3 4 4 4 3 3 4 3 3 2 1 0 0 0 0 0 0 0 0 0 0 0 0 0 0 0 0 0 0 0 0 0 0
0 0 0 0 0 0 0 0 1 2 3 4 5 4 2 0 1 3 3 3 2 3 4 4 4 3 1 0 0 0 0 0 0 0 0 0 0 0 0 0 0 0 0 0 0 0 0 0 0
0 0 0 0 0 0 0 0 1 2 3 3 4 3 1 0 0 1 2 2 2 2 3 5 5 4 2 1 0 1 0 0 0 1 1 0 0 0 0 0 0 0 0 0 0 0 0 0 0
0 0 0 0 0 0 0 0 1 2 3 3 3 2 1 0 0 1 3 4 4 4 5 6 5 4 3 2 1 0 0 0 0 1 2 1 1 0 0 0 0 0 0 0 0 0 0 0 0
0 0 0 0 0 0 0 0 0 1 3 3 3 2 1 0 1 3 5 6 6 6 7 6 5 4 4 4 2 2 1 1 1 2 3 3 3 4 4 2 0 0 0 0 0 0 0 0 1
0 0 0 0 0 0 0 0 0 1 2 3 3 2 0 0 1 3 5 7 6 6 6 6 5 5 4 5 5 5 4 4 3 3 4 4 6 7 7 5 2 1 0 0 1 1 1 1 2
0 0 0 0 0 0 0 0 0 1 2 3 3 2 1 1 1 3 5 7 7 4 3 5 5 5 5 6 6 7 7 6 6 6 5 5 6 7 6 5 4 2 1 1 2 2 2 3 4
0 0 0 0 0 0 0 0 0 0 1 1 3 3 2 3 3 3 4 6 6 4 3 3 4 5 4 5 6 7 8 8 7 7 7 7 7 5 4 4 4 3 3 3 3 3 3 3 4
0 0 0 0 0 0 0 0 0 0 0 1 2 3 3 4 4 4 5 6 7 5 3 3 4 4 5 5 7 8 9 9 8 8 7 7 7 5 4 3 3 3 3 3 3 3 3 3 3
0 0 0 0 0 0 0 0 0 0 1 2 3 3 3 3 3 3 5 7 7 5 3 2 3 3 4 6 8 10 10 10 9 9 8 7 6 5 4 3 3 3 3 3 3 3 3 3 3
0 0 0 0 0 0 0 0 0 2 3 4 4 4 3 2 1 2 4 5 5 2 1 2 3 3 4 5 8 11 11 10 10 10 9 7 6 5 4 3 3 3 3 3 3 3 3 3 3
0 0 0 0 0 0 0 0 0 2 4 5 4 4 3 1 0 1 1 2 1 0 1 3 5 5 5 5 7 10 11 11 11 11 9 8 7 7 5 4 4 4 4 4 4 4 3 3 3
0 0 0 0 0 0 0 0 0 1 3 4 3 2 1 0 1 2 1 0 0 0 1 3 5 7 7 7 8 10 12 12 12 13 12 9 8 8 8 6 6 6 6 6 6 5 4 4 4
0 0 0 0 0 0 0 0 0 1 2 3 3 1 0 0 1 3 2 1 0 0 1 3 5 8 10 9 9 10 12 13 14 15 14 11 8 9 9 7 6 6 6 6 6 6 6 5 5

GEFSSGP_con_probscp_372.txt.gz
Probability
3 4 5 7 7 3 0 0 0 0 0 0 0 0 0 0 0 0 0 0 0 1 2 4 7 7 4 2 2 4 4 3 2 1 0 0 0 0 0 0 0 0 0 0 0 0 0 1 2
3 4 6 7 5 2 0 0 0 0 0 0 0 0 0 0 0 0 0 0 0 1 2 5 8 8 6 3 2 3 4 5 4 2 0 0 0 0 0 0 0 0 0 0 0 0 0 1 2
2 4 5 4 2 0 0 0 0 0 0 0 0 0 0 0 0 0 0 0 0 0 1 5 9 10 7 5 3 4 5 6 6 4 2 1 1 1 1 0 0 0 0 0 0 0 0 0 1
2 3 2 1 0 0 0 0 0 0 0 0 0 1 1 0 0 0 0 0 0 0 1 5 9 10 8 7 4 4 5 6 6 6 5 2 1 2 1 0 0 0 0 0 0 0 0 0 0
3 2 1 0 0 0 0 0 0 0 1 1 2 2 2 1 1 0 0 0 0 0 1 4 8 8 7 6 5 4 4 4 4 6 6 4 1 1 1 0 0 0 0 0 0 1 2 1 0
4 2 1 0 0 0 0 0 0 0 1 2 3 3 3 3 2 1 0 0 0 0 1 3 6 6 5 5 5 4 4 2 2 4 6 5 3 1 1 1 0 0 0 0 0 2 2 2 1
2 1 0 0 0 0 0 0 0 0 0 1 3 4 4 4 3 1 0 0 0 0 1 2 4 4 4 5 5 5 3 1 1 2 3 4 3 2 3 2 1 0 0 0 0 1 2 1 0
1 0 0 0 0 0 0 0 0 0 0 0 1 3 6 6 4 2 1 0 0 0 0 1 2 3 3 4 5 4 2 1 1 1 2 2 2 2 3 3 2 1 0 0 0 1 1 1 1
0 0 0 0 0 0 0 0 0 0 0 0 1 4 7 7 5 3 1 0 0 0 0 0 1 2 3 4 4 3 2 2 2 2 2 1 1 2 2 3 2 1 0 1 1 2 2 2 2
0 0 0 0 0 0 0 0 0 0 1 1 3 6 8 8 6 4 2 0 0 0 0 0 0 1 2 3 2 1 1 2 2 3 2 1 1 2 2 2 2 0 0 1 2 2 2 3 3
0 0 0 0 0 0 0 0 0 0 1 2 4 7 9 9 7 5 2 0 0 0 0 0 0 0 1 1 1 0 0 1 2 3 2 2 2 3 3 3 2 1 0 0 1 1 1 1 2
0 0 0 0 0 0 0 0 0 0 0 1 4 6 7 8 7 4 2 1 0 0 0 0 0 0 0 0 0 0 0 0 1 2 2 3 3 3 3 3 3 1 0 0 0 0 0 1 2
0 0 0 0 0 0 0 0 0 0 0 1 4 5 5 5 5 4 3 1 1 2 1 1 1 1 1 1 0 0 0 0 0 0 1 2 3 3 3 3 3 2 0 1 1 1 1 1 2
0 0 0 0 0 0 0 0 0 0 1 2 4 5 4 4 5 4 3 2 3 3 3 2 2 3 4 3 1 0 0 0 0 0 0 1 2 3 3 3 3 1 0 1 2 2 2 2 2
0 0 0 0 0 0 0 0 0 0 1 3 4 4 5 5 6 6 5 5 5 4 4 3 3 4 6 6 3 1 0 1 2 1 0 0 1 2 2 2 2 1 0 1 2 3 2 1 1
0 0 0 0 0 0 0 0 0 0 1 2 3 5 6 7 7 6 7 8 7 6 5 4 4 5 7 6 4 1 1 2 3 2 1 1 0 1 1 1 1 0 0 1 2 3 3 2 1
0 0 0 0 0 0 0 0 0 0 0 1 3 6 8 7 6 6 7 8 8 7 6 6 6 6 5 4 2 1 1 2 3 3 3 2 1 0 0 0 0 0 0 1 1 2 3 3 3
0 0 0 0 0 0 0 0 0 0 0 0 2 5 7 6 6 6 5 5 6 7 9 9 9 7 6 4 3 1 0 1 2 3 3 2 1 1 1 0 0 0 0 0 0 1 2 3 3
0 0 0 0 0 0 0 0 0 0 0 0 1 3 5 6 6 5 4 4 6 10 13 13 12 11 9 7 5 3 1 0 1 2 4 4 3 3 3 2 1 2 2 1 0 1 2 3 3
0 0 0 0 0 0 0 0 0 0 0 0 0 2 5 7 6 5 3 2 5 11 14 14 14 14 13 11 9 6 3 2 1 3 6 7 7 8 7 6 5 4 4 3 2 2 4 4 4
0 0 0 0 0 0 0 0 0 1 1 1 1 2 5 7 6 4 2 1 3 8 10 11 12 13 13 13 12 10 8 7 6 7 9 11 12 12 12 11 9 7 7 5 3 4 5 5 4
0 0 0 0 0 0 0 0 0 1 2 2 3 3 5 5 4 3 2 2 2 3 6 9 12 13 13 13 13 13 14 13 11 11 12 13 14 13 13 13 12 12 11 9 7 6 7 7 6
0 0 0 0 0 0 0 0 0 1 2 3 4 5 5 5 4 3 4 4 3 3 5 8 12 15 14 13 14 16 17 17 16 16 15 14 13 12 11 12 14 15 14 13 12 11 10 9 9
0 0 0 0 0 0 0 0 0 1 1 2 4 5 6 6 4 4 6 8 8 7 7 8 12 16 16 15 14 16 18 18 17 17 16 14 12 10 9 10 13 14 15 16 15 13 11 10 10
0 0 0 0 0 0 0 0 0 0 1 1 2 4 6 6 4 4 7 10 11 11 9 9 12 16 17 14 13 15 17 16 15 15 15 14 11 10 9 9 11 12 13 14 14 12 9 8 7
0 0 0 0 0 0 0 0 0 0 1 2 2 3 6 7 6 5 5 8 10 11 10 9 12 16 16 14 13 16 17 15 14 15 16 16 14 13 12 10 9 9 10 11 12 11 10 8 7
0 0 0 0 0 0 0 0 0 0 2 3 3 4 8 9 8 6 5 7 10 11 11 11 12 15 17 15 16 18 18 17 17 17 20 20 19 16 13 10 9 8 9 11 12 12 12 11 10
0 0 0 0 0 0 0 0 1 2 3 4 4 6 9 10 9 9 9 10 12 13 12 11 11 14 16 17 17 17 17 18 19 20 21 22 21 19 15 12 10 10 12 14 15 15 13 12 10
0 0 0 0 0 0 0 1 2 3 4 5 5 7 9 10 11 13 14 15 16 16 14 12 12 13 15 16 16 15 16 18 20 21 22 23 23 21 18 16 15 15 16 16 16 15 12 10 9
0 0 0 0 0 0 0 1 2 3 4 5 6 8 10 12 13 15 16 17 18 17 15 13 13 13 15 17 18 16 15 17 19 21 22 23 23 22 19 19 19 19 18 18 16 13 11 10 10

GEFSSGP_con_probscp_378.txt.gz
Probability
4 8 15 26 30 18 4 0 0 0 0 0 0 0 0 0 0 0 1 4 6 7 7 10 12 12 10 7 6 6 6 7 6 3 1 0 0 0 0 0 0 0 0 0 0 0 0 0 0
8 12 19 26 24 11 2 0 0 0 0 0 0 0 0 0 0 0 2 4 5 6 7 9 11 12 10 8 6 6 6 7 6 4 2 1 0 0 0 0 0 0 0 0 0 0 0 0 0
15 18 24 24 15 4 0 0 0 0 0 0 1 1 1 0 0 1 2 3 4 5 7 8 10 12 11 9 7 6 7 7 7 6 5 3 2 0 0 0 0 0 0 0 0 0 1 0 0
22 24 24 18 9 2 0 0 0 0 0 1 2 2 1 0 0 1 2 3 4 7 8 8 10 12 12 10 8 7 7 8 8 7 7 6 4 2 1 1 1 0 0 0 0 0 0 0 0
25 24 19 10 4 0 0 0 0 0 0 1 3 4 3 1 0 0 1 3 7 11 12 11 12 13 13 11 9 7 6 7 7 7 6 6 5 4 4 4 3 1 0 0 0 0 0 0 0
22 19 11 4 1 0 0 0 0 0 0 2 5 6 6 4 1 0 1 3 9 14 14 14 15 15 14 12 8 6 6 6 7 7 6 5 5 5 5 4 3 2 1 0 0 0 0 0 0
15 11 5 1 0 0 0 0 0 0 0 2 5 7 8 6 2 0 1 4 9 14 15 14 15 16 15 11 6 5 5 5 7 7 7 7 7 6 5 2 1 1 1 1 0 0 0 0 0
7 5 2 0 0 0 0 0 0 1 1 2 5 8 9 8 4 1 2 5 8 11 12 11 11 13 12 7 4 4 4 5 5 6 7 7 6 5 3 1 0 0 1 1 0 0 0 0 0
2 2 1 0 0 0 0 0 1 3 3 3 6 9 11 9 6 4 4 6 7 9 8 8 9 10 7 4 3 4 4 4 4 4 5 4 3 2 1 1 1 1 0 0 0 0 1 1 1
1 1 1 0 0 0 0 0 1 4 4 5 8 11 12 10 7 6 6 6 7 7 6 6 8 8 5 4 4 3 2 3 3 3 3 3 2 0 0 1 1 1 1 0 0 1 1 2 3
2 2 1 0 0 0 0 0 1 2 3 5 9 12 12 10 8 8 9 9 8 7 6 6 8 8 6 5 6 3 2 2 2 1 2 2 1 0 0 0 1 2 2 2 1 1 1 2 3
1 1 0 0 0 0 0 0 0 2 3 5 8 11 11 9 8 9 12 12 11 9 8 7 8 9 8 7 7 6 4 3 1 1 1 1 0 0 0 1 2 3 3 3 2 1 1 1 1
0 0 0 0 0 0 0 0 1 2 3 5 9 10 10 9 9 9 11 13 13 12 10 9 11 13 12 10 8 7 6 5 3 2 2 1 0 0 1 2 3 4 4 4 4 3 1 1 0
0 0 0 0 0 1 1 2 2 3 4 7 10 10 10 11 11 10 11 13 15 14 13 12 13 16 16 12 9 7 7 8 7 6 6 4 1 1 3 3 3 5 6 7 6 5 3 1 0
0 0 0 0 0 1 2 3 3 4 5 7 9 10 12 14 13 12 12 14 15 15 15 15 16 18 18 15 11 9 8 9 11 12 12 9 5 4 4 5 5 7 8 9 9 8 5 2 1
0 0 0 0 0 1 2 4 5 5 6 7 8 10 13 14 15 14 13 14 15 16 17 18 18 18 17 16 15 12 8 8 12 15 16 15 11 9 9 10 11 12 12 11 11 10 7 5 5
0 0 0 0 0 0 1 3 5 5 6 7 9 10 11 12 14 14 13 14 16 19 20 20 19 18 17 18 19 16 11 10 12 15 17 18 16 15 15 17 20 20 16 14 12 11 9 8 7
0 0 0 0 0 0 1 3 5 5 5 6 9 10 10 11 12 12 12 15 18 20 22 21 21 21 22 23 24 21 15 12 12 15 18 21 20 19 19 20 23 23 20 17 14 11 10 9 9
0 0 0 0 0 0 1 3 5 5 5 6 8 9 10 12 13 12 12 14 18 19 22 25 25 27 27 28 27 24 19 15 14 17 23 26 25 23 20 19 22 23 21 19 16 13 12 10 8
0 0 0 0 0 0 0 2 6 7 7 7 9 10 12 16 18 15 14 16 19 20 24 27 28 29 30 29 27 25 22 19 17 21 28 31 29 25 22 21 23 23 21 20 18 16 14 13 10
0 0 0 0 0 0 1 3 6 9 9 9 10 11 14 18 20 20 20 22 23 23 25 28 29 30 31 29 27 24 24 22 20 22 27 29 28 25 23 23 25 25 22 20 18 17 16 14 13
0 0 0 0 0 0 1 2 6 9 10 10 11 13 15 19 22 24 27 28 26 25 26 28 30 32 31 30 27 24 23 23 22 22 23 25 24 23 22 23 25 25 23 20 19 19 17 15 13
0 0 0 0 0 0 0 1 3 6 8 9 11 14 17 19 22 26 30 31 27 24 24 27 31 33 33 31 29 26 23 23 24 23 22 23 24 24 23 24 26 27 24 22 22 21 19 16 15
0 0 1 0 0 0 0 1 2 4 5 8 11 14 17 19 21 25 30 31 26 22 23 27 34 38 37 34 31 29 28 27 27 24 21 21 23 25 26 26 27 27 24 22 23 22 19 18 17
0 0 0 0 0 0 1 2 2 2 3 6 10 12 15 18 22 25 29 30 26 23 24 30 38 42 41 38 34 32 32 31 27 23 19 18 21 24 27 28 28 28 25 21 21 20 18 17 17
0 0 0 0 0 0 2 3 3 3 4 6 9 12 15 19 23 25 28 29 28 27 27 33 41 44 43 40 36 34 34 31 27 23 20 19 20 22 25 29 32 32 28 23 21 22 21 20 20
0 0 0 0 0 0 1 3 5 6 6 6 8 12 16 20 24 27 29 31 31 29 28 33 40 43 40 37 35 34 34 32 28 26 24 22 21 21 24 29 33 33 30 27 25 25 25 24 25
0 0 0 0 0 0 0 2 5 7 8 9 10 13 17 21 26 30 32 32 31 29 27 30 37 39 37 34 33 33 34 33 30 28 27 25 24 24 25 28 31 32 32 31 29 28 27 26 25
0 0 1 1 0 0 0 2 4 5 8 12 16 19 21 24 28 31 33 31 29 28 26 27 30 33 33 32 32 32 33 32 29 28 28 28 28 28 27 28 29 31 33 33 31 29 27 24 22
0 0 1 1 1 0 0 1 3 4 7 13 22 26 27 28 30 32 33 30 29 28 25 24 26 27 28 30 30 31 32 30 27 27 28 29 30 30 30 29 28 30 34 34 32 30 27 23 22